Tracking 35331 objects as of 17-Sep-2026
HD Live streaming from Space Station
objects crossing your sky now

LEMUR 2 ANDIS

Track LEMUR 2 ANDIS now!
10-day predictions
LEMUR 2 ANDIS is classified as:


NORAD ID: 42838
Int'l Code: 2017-042P
Launch date: July 14, 2017
Source: United States (US)
Launch site: TYURATAM MISSILE AND SPACE COMPLEX (TTMTR)
Your satellite tracking list
Your tracking list is empty




NASA's NSSDC Master Catalog

Two Line Element Set (TLE):
1 42838U 17042P   26259.80767372  .00023222  00000-0  61491-3 0  9998
2 42838  97.3704  80.7693 0008433  40.8082 319.3793 15.38334607502529
Source of the keplerian elements: AFSPC